This demonstration page uses our WeatherBlox Daily Observations layout. Learn more.

Left ArrowRight Arrow

39.92423, -83.80882

Hourly Observations for March 28, 2020

Temp ( °F °C ) Dew Point ( °F °C ) Humidity (%) Winds ( mph kmh ) Pressure ( in mb ) Visibility ( mi km ) Precip ( " mm )
12:56 am 00:56 Cloudy with Mist and Fog 54 12.2 54 12.2 100 100 SE 12 19 29.83 1010 5 8.0467 0 0
1:52 am 01:52 Partly Cloudy with Mist and Fog 54 12 54 12 100 100 ESE 10 17 29.81 1010 6 9.65604 0 0
1:56 am 01:56 Partly Cloudy with Mist and Fog 54 12.2 54 12.2 100 100 ESE 12 19 29.81 1010 6 9.65604 0 0
2:56 am 02:56 Cloudy with Heavy Thunderstorms 54 12.2 54 12.2 100 100 SSE 9 15 29.83 1010 5 8.0467 0.02 0.508
3:10 am 03:10 Cloudy with Heavy Thunderstorms 54 12 54 12 100 100 E 5 7 29.82 1010 2.5 4.02335 0.16 4.064
3:23 am 03:23 Mostly Cloudy with Light Thunderstorms 54 12 54 12 100 100 SSE 8 13 29.8 1009 4 6.43736 0.16 4.064
3:56 am 03:56 Mostly Clear with Mist and Fog 54 12.2 54 12.2 100 100 SE 13 20 29.74 1007 6 9.65604 0.16 4.064
4:56 am 04:56 Clear 59 15 59 15 100 100 VRB 3 6 29.75 1008 10 16.0934 0 0
5:56 am 05:56 Clear 58 14.4 58 14.4 100 100 S 10 17 29.73 1007 10 16.0934 0 0
6:56 am 06:56 Partly Cloudy 61 16.1 61 16.1 100 100 SSW 12 19 29.75 1007 10 16.0934 0 0
7:56 am 07:56 Mostly Cloudy 63 17.2 63 17.2 100 100 SSW 13 20 29.74 1007 10 16.0934 0 0
8:56 am 08:56 Sunny 66 18.9 64 17.8 93 93 SSW 14 22 29.74 1007 10 16.0934 0 0
9:56 am 09:56 Sunny 68 20 66 18.9 93 93 SSW 15 24 29.74 1007 10 16.0934 0 0
10:56 am 10:56 Mostly Cloudy 69 20.6 67 19.4 93 93 SW 16 26 29.75 1008 10 16.0934 0.09 2.286
11:56 am 11:56 Mostly Cloudy 73 22.8 68 20 84 84 SW 14 22 29.73 1007 10 16.0934 0.01 0.254
12:19 pm 12:19 Mostly Cloudy 73 23 66 19 78 78 WSW 22 35 29.71 1006 10 16.0934 0 0
12:56 pm 12:56 Cloudy 74 23.3 68 20 82 82 WSW 18 30 29.75 1008 10 16.0934 0 0
1:54 pm 13:54 Cloudy with Light Thunderstorms 72 22 66 19 83 83 SW 10 17 29.71 1006 10 16.0934 0.001 0.001
1:56 pm 13:56 Cloudy with Light Thunderstorms 72 22.2 67 19.4 84 84 SW 13 20 29.75 1008 10 16.0934 0.001 0.001
2:05 pm 14:05 Cloudy with Heavy Thunderstorms 70 21 68 20 94 94 W 32 52 29.79 1009 1.5 2.41401 0.001 0.001
2:10 pm 14:10 Cloudy with Heavy Thunderstorms 64 18 64 18 100 100 W 21 33 29.75 1007 0.75 1.207005 0 0
2:14 pm 14:14 Cloudy with Light Thunderstorms 64 18 64 18 100 100 WSW 15 24 29.75 1007 1.25 2.011675 0 0
2:17 pm 14:17 Cloudy with Light Thunderstorms 66 19 66 19 100 100 WSW 13 20 29.76 1008 4 6.43736 0 0
2:28 pm 14:28 Cloudy with Heavy Thunderstorms 66 19 66 19 100 100 W 21 33 29.77 1008 1.75 2.816345 0 0
2:39 pm 14:39 Cloudy with Thunderstorms 66 19 66 19 100 100 WSW 13 20 29.75 1007 6 9.65604 0 0
2:56 pm 14:56 Cloudy with Light Thunderstorms 67 19.4 67 19.4 100 100 W 6 9 29.76 1008 10 16.0934 0 0
3:18 pm 15:18 Mostly Cloudy 70 21 70 21 100 100 W 9 15 29.75 1007 10 16.0934 0 0
3:51 pm 15:51 Cloudy 70 21 70 21 100 100 NNW 6 9 29.75 1007 10 16.0934 0 0
3:56 pm 15:56 Cloudy 69 20.6 69 20.6 100 100 NNW 9 15 29.78 1009 10 16.0934 0 0
4:04 pm 16:04 Cloudy 68 20 68 20 100 100 N 8 13 29.76 1008 10 16.0934 0 0
4:43 pm 16:43 Mostly Cloudy with Light Rain 66 19 66 19 100 100 NE 3 6 29.76 1008 9 14.48406 0 0
4:56 pm 16:56 Partly Cloudy 68 20 68 20 100 100 Calm 29.77 1008 10 16.0934 0 0
5:56 pm 17:56 Sunny 69 20.6 69 20.6 100 100 Calm 29.77 1008 10 16.0934 0 0
6:56 pm 18:56 Mostly Sunny 69 20.6 69 20.6 100 100 Calm 29.76 1008 10 16.0934 0 0
7:56 pm 19:56 Cloudy 68 20 68 20 100 100 SSE 6 9 29.78 1008 9 14.48406 0 0
8:34 pm 20:34 Cloudy 66 19 66 19 100 100 VRB 6 9 29.76 1008 9 14.48406 0 0
8:43 pm 20:43 Cloudy 64 18 64 18 100 100 NNE 15 24 29.75 1007 10 16.0934 0 0
8:56 pm 20:56 Cloudy 64 17.8 64 17.8 100 100 N 12 19 29.77 1008 10 16.0934 0 0
9:32 pm 21:32 Partly Cloudy 63 17 63 17 100 100 ESE 9 15 29.76 1008 10 16.0934 0 0
9:56 pm 21:56 Mostly Clear 62 16.7 62 16.7 100 100 E 10 17 29.78 1008 10 16.0934 0 0
10:56 pm 22:56 Partly Cloudy 62 16.7 62 16.7 100 100 E 12 19 29.73 1007 10 16.0934 0 0
11:56 pm 23:56 Cloudy with Light Rain 64 17.8 64 17.8 100 100 SSE 7 11 29.77 1008 10 16.0934 0 0

Powered by AerisWeather